[[{"header":{"parameterUnit":"m.s-1","parameterCategory":2,"la1":30.2991,"la2":30.254,"lo1":-89.0895,"lo2":-89.0444,"dy":0.0017,"dx":0.0017,"nx":28,"ny":28,"refTime":"2024-10-01T21:00:00:Z","depth":"0","parameterNumber":2,"parameterNumberName":"U-component_of_CURRENTS"},"data":[0,0,0,0,0,0,0,0,0,0,0,0,0,0,0,0,0,0,0,0,0,0,0,0,0,0,0,0,0,0,0,0,0,0,0,0,0,0,0,0,0,0,0,0,0,0,0,0,0,0,0,0,0,0,0,0,0,0,0.126,0.126,0,0.1198,0.1198,0.1197,0.1116,0.1115,0.1113,0.1112,0.1081,0.1081,0.1082,0,0,0,0,0,0,0,0,0,0,0,0,0,0.1356,0.1355,0.126,0.1259,0.1259,0.1198,0.1198,0.1197,0.1117,0.1115,0.1113,0.1111,0.108,0.1081,0.1082,0,0,0,0,0,0,0,0,0,0,0,0,0,0.1308,0.1354,0.1261,0.121,0.1204,0.1198,0.1198,0.1197,0.1117,0.1115,0.1112,0.111,0.108,0.1081,0.1082,0.1132,0,0,0.1084,0.1085,0,0,0,0,0,0,0,0,0.1311,0.1305,0.1218,0.1213,0.1207,0.1161,0.122,0.1176,0.1118,0.1152,0.1112,0.1109,0.1111,0.1109,0.1105,0.1131,0.1129,0.1085,0.1085,0.1085,0.1086,0,0,0,0,0,0,0,0.1314,0.1307,0.1238,0.1217,0.1211,0.1206,0.1196,0.1211,0.1147,0.1149,0.1143,0.1133,0.1108,0.1104,0.1103,0.1129,0.1085,0.1085,0.1086,0.1086,0.1247,0.125,0,0,0,0,0,0,0.1318,0.131,0.124,0.1236,0.1252,0.1205,0.1195,0.118,0.1146,0.1138,0.1135,0.113,0.1104,0.1103,0.1102,0.1199,0.1085,0.1086,0.1087,0.1243,0.1247,0.1251,0,0,0,0,0,0,0.132,0.1312,0.1242,0.1271,0.1261,0.1206,0.119,0.118,0.1175,0.1135,0.1127,0.114,0.1102,0.1101,0.1143,0.1196,0.1087,0.1087,0.1238,0.1244,0.1249,0.1369,0,0,0,0,0,0,0.1323,0.1313,0.1328,0.1271,0.1259,0.1259,0.1191,0.118,0.1172,0.1164,0.1138,0.1132,0.11,0.1142,0.1144,0.1195,0.1088,0.1234,0.1241,0.1248,0.136,0.1378,0.1393,0,0,0,0,0,0.1327,0.1352,0.1328,0.1321,0.1272,0.1261,0.1256,0.121,0.1175,0.1194,0.1182,0.1132,0.1188,0.1147,0.1147,0.12,0.123,0.1239,0.1247,0.1353,0.1374,0.1393,0,0,0,0,0,0,0.1428,0.1344,0.1317,0.1323,0.1302,0.1246,0.1264,0.1227,0.1231,0.1228,0.118,0.1176,0.1228,0.1213,0.1168,0.1271,0.1202,0.1211,0.1282,0.1302,0.1319,0.1313,0.1089,0,0,0,0,0,0.1451,0.1431,0.1373,0.1387,0.1376,0.1325,0.132,0.1288,0.127,0.1267,0.1249,0.1249,0.1267,0.1282,0.129,0.1355,0.1359,0.1393,0.1409,0.1423,0.1424,0.1487,0.1509,0.1279,0.1279,0.1279,0,0,0.1494,0.145,0.144,0.1405,0.1383,0.1386,0.1317,0.132,0.1334,0.127,0.1307,0.1302,0.1297,0.1359,0.1383,0.1352,0.1502,0.1434,0.1445,0.1438,0.1498,0.152,0.154,0.1285,0.1284,0.1283,0,0,0.1557,0.1533,0.1528,0.1514,0.1482,0.1456,0.146,0.142,0.1418,0.1451,0.1415,0.1451,0.1467,0.1484,0.1491,0.1614,0.1579,0.1618,0.1703,0.1766,0.1785,0.1801,0.1872,0.1893,0.1635,0.1635,0.1635,0,0.1616,0.1592,0.154,0.154,0.1537,0.1489,0.1505,0.151,0.1496,0.1511,0.148,0.1532,0.1528,0.1607,0.1647,0.1648,0.1676,0.1621,0.1785,0.1801,0.1816,0.1884,0.1906,0.1642,0.1641,0.164,0.164,0,0.1658,0.1653,0.1663,0.1631,0.1638,0.165,0.1633,0.1658,0.1644,0.1634,0.17,0.1708,0.1732,0.1754,0.1732,0.1846,0.1832,0.1789,0.1727,0.1846,0.1911,0.1932,0.1651,0.1649,0.1647,0.1645,0,0,0.1734,0.1693,0.1696,0.1692,0.1681,0.1686,0.1738,0.1759,0.1792,0.1808,0.1858,0.191,0.1899,0.191,0.1907,0.1969,0.211,0.193,0.1931,0.1987,0.2266,0.236,0.2391,0.2092,0.2095,0.2098,0.2282,0,0.1779,0.1784,0.1759,0.1794,0.1796,0.1787,0.1835,0.1861,0.1881,0.193,0.1957,0.2001,0.1965,0.1989,0.2051,0.2081,0.2164,0.2064,0.2153,0.2156,0.2214,0.2419,0.2502,0.2682,0.2302,0.2305,0.2308,0,0.1813,0.1808,0.1832,0.1844,0.1849,0.1875,0.1932,0.197,0.2033,0.2052,0.2105,0.2108,0.2208,0.2149,0.2289,0.2226,0.2264,0.2288,0.2294,0.2348,0.229,0.2497,0.2733,0.2653,0.2339,0.2336,0.2334,0,0.1849,0.186,0.1876,0.1879,0.1894,0.1922,0.1946,0.2004,0.2045,0.2131,0.217,0.2259,0.2315,0.2376,0.2433,0.2368,0.2584,0.2495,0.2625,0.2631,0.2703,0.2711,0.2858,0.2612,0.2612,0.2612,0.2611,0,0.188,0.1898,0.189,0.1895,0.1938,0.1949,0.2011,0.2051,0.2122,0.2186,0.223,0.2312,0.2373,0.2484,0.2508,0.2671,0.2656,0.2697,0.271,0.2754,0.2763,0.2691,0.2593,0.2618,0.2617,0.2616,0.2614,0,0.1904,0.1895,0.1913,0.1933,0.1943,0.1973,0.202,0.2069,0.214,0.2231,0.2263,0.2388,0.2555,0.2638,0.2771,0.2798,0.2866,0.2961,0.3022,0.3041,0.3069,0.2975,0.2949,0.2855,0.3147,0.3151,0.3154,0,0.191,0.1916,0.1929,0.1935,0.1939,0.1976,0.2004,0.2068,0.2122,0.2279,0.2332,0.2524,0.2665,0.2935,0.3067,0.3221,0.3024,0.3348,0.3243,0.3153,0.3056,0.2797,0.2696,0.3395,0.34,0.3403,0.3407,0,0.1922,0.1922,0.1926,0.1936,0.1954,0.1982,0.203,0.2073,0.2168,0.2272,0.2438,0.257,0.2886,0.3112,0.3343,0.3438,0.3229,0.3436,0.3333,0.3289,0.3026,0.2915,0.3171,0.3443,0.3439,0.3437,0.3435,0.3433,0.1918,0.1922,0.1913,0.1927,0.1948,0.1973,0.1987,0.2072,0.2169,0.2317,0.2465,0.2685,0.3053,0.342,0.3508,0.3722,0.3469,0.3669,0.3576,0.3327,0.3207,0.3561,0.3839,0.3838,0.3837,0.3836,0.3835,0,0.1878,0.1884,0.1903,0.1899,0.1906,0.1931,0.1989,0.201,0.2113,0.2325,0.2482,0.2901,0.3233,0.3523,0.3884,0.3856,0.3639,0.3767,0.3421,0.3319,0.3693,0.3678,0.3945,0.3945,0.3945,0.3945,0.3945,0.3945,0.1847,0.1838,0.185,0.184,0.1847,0.1838,0.1856,0.1931,0.2065,0.2321,0.2567,0.2769,0.3228,0.3702,0.3902,0.3865,0.3501,0.3441,0.3221,0.3518,0.3499,0.348,0.3445,0.3659,0.3659,0.2797,0.2791,0.2786]},{"header":{"parameterUnit":"m.s-1","parameterCategory":2,"la1":30.2991,"la2":30.254,"lo1":-89.0895,"lo2":-89.0444,"dy":0.0017,"dx":0.0017,"nx":28,"ny":28,"refTime":"2024-10-01T21:00:00:Z","depth":"0","parameterNumber":3,"parameterNumberName":"V-component_of_CURRENTS"},"data":[0,0,0,0,0,0,0,0,0,0,0,0,0,0,0,0,0,0,0,0,0,0,0,0,0,0,0,0,0,0,0,0,0,0,0,0,0,0,0,0,0,0,0,0,0,0,0,0,0,0,0,0,0,0,0,0,0,0,-0.0598,-0.0599,0,-0.0687,-0.0689,-0.069,-0.0799,-0.08,-0.0802,-0.0803,-0.0967,-0.097,-0.0973,0,0,0,0,0,0,0,0,0,0,0,0,0,-0.0537,-0.0538,-0.0598,-0.0599,-0.06,-0.0687,-0.0689,-0.069,-0.0799,-0.08,-0.0802,-0.0804,-0.0966,-0.097,-0.0973,0,0,0,0,0,0,0,0,0,0,0,0,0,-0.0592,-0.0538,-0.0598,-0.0662,-0.0668,-0.0687,-0.0689,-0.0691,-0.0798,-0.08,-0.0802,-0.0804,-0.0965,-0.0969,-0.0974,-0.0961,0,0,-0.0988,-0.099,0,0,0,0,0,0,0,0,-0.0589,-0.0595,-0.0652,-0.0657,-0.0665,-0.0731,-0.0727,-0.0784,-0.0798,-0.0753,-0.0803,-0.0805,-0.0891,-0.0902,-0.0918,-0.0969,-0.0976,-0.0989,-0.0991,-0.0993,-0.0995,0,0,0,0,0,0,0,-0.0585,-0.0592,-0.0637,-0.0652,-0.066,-0.0691,-0.0701,-0.0739,-0.0813,-0.0757,-0.0764,-0.0767,-0.0896,-0.0913,-0.0923,-0.0978,-0.0988,-0.0993,-0.0995,-0.0997,-0.1,-0.0998,0,0,0,0,0,0,-0.0564,-0.0588,-0.0634,-0.064,-0.0627,-0.069,-0.0702,-0.0711,-0.0812,-0.0827,-0.0766,-0.0772,-0.0905,-0.0918,-0.0929,-0.091,-0.0993,-0.0998,-0.1,-0.1003,-0.1,-0.0997,0,0,0,0,0,0,-0.0562,-0.0567,-0.0631,-0.0613,-0.0623,-0.0688,-0.0698,-0.0711,-0.0729,-0.0817,-0.0835,-0.0769,-0.0907,-0.0923,-0.0939,-0.0918,-0.1,-0.1004,-0.1006,-0.1002,-0.0998,-0.0877,0,0,0,0,0,0,-0.056,-0.0566,-0.0572,-0.0611,-0.0623,-0.0627,-0.0696,-0.0711,-0.0726,-0.0735,-0.0825,-0.0843,-0.091,-0.0932,-0.0944,-0.0925,-0.1008,-0.1009,-0.1004,-0.0999,-0.0885,-0.087,-0.0857,0,0,0,0,0,-0.0558,-0.0559,-0.0571,-0.0577,-0.0626,-0.0625,-0.0633,-0.069,-0.0723,-0.0717,-0.0768,-0.084,-0.0909,-0.0933,-0.0948,-0.0931,-0.1012,-0.1006,-0.1,-0.0891,-0.0872,-0.0857,0,0,0,0,0,0,-0.0557,-0.057,-0.0586,-0.0598,-0.06,-0.0642,-0.0648,-0.0673,-0.0708,-0.0723,-0.0808,-0.0827,-0.0833,-0.0883,-0.0907,-0.091,-0.0971,-0.0967,-0.0883,-0.0866,-0.0852,-0.0857,-0.1011,0,0,0,0,0,-0.0549,-0.0544,-0.0558,-0.0566,-0.0561,-0.0596,-0.0606,-0.0632,-0.0664,-0.0683,-0.0734,-0.0784,-0.0817,-0.0842,-0.0878,-0.0879,-0.0934,-0.0874,-0.0859,-0.0848,-0.0857,-0.0903,-0.0895,-0.0977,-0.0977,-0.0977,0,0,-0.0554,-0.0558,-0.056,-0.0563,-0.0575,-0.0556,-0.0609,-0.0608,-0.0597,-0.0693,-0.0695,-0.0736,-0.0802,-0.0805,-0.0813,-0.0849,-0.0844,-0.084,-0.083,-0.0847,-0.0896,-0.0889,-0.0882,-0.0973,-0.0973,-0.0974,0,0,-0.0539,-0.0555,-0.0534,-0.0524,-0.0519,-0.0528,-0.0516,-0.0531,-0.0546,-0.0536,-0.0602,-0.0622,-0.0667,-0.0712,-0.0742,-0.0667,-0.0763,-0.0672,-0.062,-0.0662,-0.0657,-0.0654,-0.0685,-0.0685,-0.0672,-0.0672,-0.0672,0,-0.0542,-0.0522,-0.0528,-0.0498,-0.0488,-0.0504,-0.0473,-0.0477,-0.0495,-0.0498,-0.052,-0.0574,-0.0626,-0.0648,-0.0623,-0.064,-0.0678,-0.0683,-0.0648,-0.0645,-0.0644,-0.0677,-0.0679,-0.0665,-0.0666,-0.0667,-0.0668,0,-0.0503,-0.0485,-0.0468,-0.0432,-0.0418,-0.0392,-0.0384,-0.0368,-0.0376,-0.0391,-0.0395,-0.0451,-0.0494,-0.0498,-0.0546,-0.055,-0.0583,-0.0621,-0.0698,-0.0629,-0.0667,-0.0671,-0.0656,-0.0658,-0.066,-0.0662,0,0,-0.0501,-0.0451,-0.0442,-0.0408,-0.0378,-0.0355,-0.0322,-0.0297,-0.0277,-0.0291,-0.0279,-0.0322,-0.0361,-0.0395,-0.0449,-0.0485,-0.0492,-0.0543,-0.0548,-0.0587,-0.0581,-0.0558,-0.0561,-0.053,-0.053,-0.053,-0.0603,0,-0.0462,-0.0391,-0.0382,-0.031,-0.0266,-0.0264,-0.0226,-0.021,-0.0209,-0.0195,-0.0249,-0.0261,-0.0319,-0.0337,-0.0378,-0.0462,-0.0502,-0.0469,-0.0632,-0.0637,-0.0636,-0.0564,-0.051,-0.0567,-0.0608,-0.0609,-0.0609,0,-0.0406,-0.0367,-0.0296,-0.0229,-0.021,-0.0178,-0.0123,-0.0095,-0.009,-0.0095,-0.0124,-0.0169,-0.0216,-0.0274,-0.0395,-0.0372,-0.0469,-0.0538,-0.0543,-0.0576,-0.0622,-0.0647,-0.0574,-0.0704,-0.0617,-0.0616,-0.0616,0,-0.0363,-0.0294,-0.0235,-0.0214,-0.0151,-0.0124,-0.0094,-0.007,-0.0038,-0.0044,-0.003,-0.0098,-0.0123,-0.0245,-0.0371,-0.0393,-0.0502,-0.0557,-0.063,-0.063,-0.0644,-0.0643,-0.0731,-0.0656,-0.0656,-0.0656,-0.0656,0,-0.0302,-0.025,-0.0211,-0.0175,-0.01,-0.008,-0.0011,0.0008,0.0031,0.0073,0.0015,0.0031,-0.012,-0.0194,-0.0337,-0.0471,-0.048,-0.0611,-0.0643,-0.0593,-0.0587,-0.0752,-0.0865,-0.0659,-0.0658,-0.0658,-0.0657,0,-0.0247,-0.0223,-0.015,-0.0094,-0.0072,-0.002,0.0046,0.0092,0.0105,0.0155,0.0155,0.0124,0.0041,-0.0104,-0.0284,-0.041,-0.0633,-0.0613,-0.053,-0.055,-0.0739,-0.0847,-0.1009,-0.1084,-0.0709,-0.0709,-0.0709,0,-0.0212,-0.0172,-0.0097,-0.0057,-0.0032,0.0037,0.009,0.0126,0.017,0.0216,0.0245,0.0199,0.019,-0.0029,-0.0241,-0.0457,-0.0627,-0.0578,-0.0616,-0.0728,-0.0874,-0.0943,-0.1,-0.0583,-0.0582,-0.0581,-0.058,0,-0.0156,-0.0135,-0.0081,-0.0003,0.0055,0.0131,0.0199,0.0249,0.0295,0.0346,0.0398,0.0399,0.0235,0.0097,-0.0168,-0.035,-0.0662,-0.0566,-0.0713,-0.0802,-0.0856,-0.0949,-0.0557,-0.0572,-0.0573,-0.0573,-0.0574,-0.0574,-0.0126,-0.0081,-0.002,0.0054,0.0123,0.0209,0.0279,0.0353,0.0445,0.0545,0.0526,0.0598,0.0411,0.0083,-0.0184,-0.0569,-0.0637,-0.0698,-0.0824,-0.0887,-0.0942,-0.0515,-0.0546,-0.0547,-0.0547,-0.0548,-0.0548,0,-0.009,-0.0042,0.0031,0.0123,0.02,0.0231,0.0344,0.0422,0.0539,0.067,0.0734,0.0775,0.0473,0.0138,-0.0349,-0.0712,-0.0887,-0.0939,-0.1038,-0.1091,-0.0727,-0.07,-0.0726,-0.0726,-0.0726,-0.0726,-0.0726,-0.0726,-0.0065,0.0001,0.0038,0.0162,0.023,0.0344,0.0412,0.0536,0.0659,0.0875,0.1022,0.1114,0.0987,0.0001,-0.0711,-0.0952,-0.1255,-0.133,-0.15,-0.1256,-0.1243,-0.1231,-0.1229,-0.1365,-0.1366,-0.1773,-0.1778,-0.1781]}],[{"header":{"parameterUnit":"m.s-1","parameterCategory":2,"la1":30.2991,"la2":30.254,"lo1":-89.0895,"lo2":-89.0444,"dy":0.0017,"dx":0.0017,"nx":28,"ny":28,"refTime":"2024-10-01T21:00:00:Z","depth":"2","parameterNumber":2,"parameterNumberName":"U-component_of_CURRENTS"},"data":[0,0,0,0,0,0,0,0,0,0,0,0,0,0,0,0,0,0,0,0,0,0,0,0,0,0,0,0,0,0,0,0,0,0,0,0,0,0,0,0,0,0,0,0,0,0,0,0,0,0,0,0,0,0,0,0,0,0,0.0951,0.0951,0,0.0923,0.0923,0.0922,0.093,0.0931,0.0931,0.0932,0.0932,0.0931,0.0931,0,0,0,0,0,0,0,0,0,0,0,0,0,0.0998,0.0997,0.0951,0.0951,0.095,0.0923,0.0923,0.0922,0.093,0.0931,0.0931,0.0932,0.0932,0.0932,0.0931,0,0,0,0,0,0,0,0,0,0,0,0,0,0.0976,0.0997,0.0951,0.095,0.0949,0.0923,0.0923,0.0922,0.093,0.0931,0.0932,0.0932,0.0932,0.0932,0.0931,0.0914,0,0,0.0929,0.0929,0,0,0,0,0,0,0,0,0.0977,0.0974,0.0951,0.095,0.0949,0.093,0.0939,0.092,0.093,0.0939,0.0932,0.0933,0.0932,0.0932,0.0927,0.0914,0.0914,0.0929,0.0929,0.0928,0.0928,0,0,0,0,0,0,0,0.0979,0.0976,0.0942,0.095,0.0949,0.0946,0.0943,0.0936,0.0934,0.0938,0.0939,0.0933,0.0932,0.0927,0.0927,0.0914,0.0929,0.0929,0.0928,0.0928,0.0981,0.0982,0,0,0,0,0,0,0.0979,0.0977,0.0942,0.0941,0.0963,0.0944,0.0942,0.0936,0.0933,0.0933,0.0932,0.0933,0.0928,0.0927,0.0927,0.0986,0.0928,0.0928,0.0927,0.0979,0.0981,0.0983,0,0,0,0,0,0,0.098,0.0976,0.0944,0.0957,0.0952,0.0943,0.0936,0.0935,0.0937,0.0928,0.0929,0.0936,0.0928,0.0928,0.0945,0.0983,0.0928,0.0927,0.0977,0.098,0.0982,0.1053,0,0,0,0,0,0,0.0982,0.0977,0.0971,0.0957,0.0952,0.0942,0.0936,0.0934,0.0932,0.0933,0.0931,0.0931,0.0929,0.0946,0.0945,0.0981,0.0927,0.0975,0.0978,0.0981,0.1049,0.1058,0.1066,0,0,0,0,0,0.0983,0.0966,0.0971,0.0967,0.0945,0.0942,0.094,0.0936,0.0931,0.0939,0.0946,0.0932,0.0967,0.0947,0.0944,0.0982,0.0973,0.0977,0.0981,0.1045,0.1056,0.1066,0,0,0,0,0,0,0.0979,0.0964,0.097,0.0949,0.0956,0.0943,0.0936,0.0937,0.0946,0.0947,0.0943,0.0945,0.098,0.0967,0.0945,0.1009,0.0972,0.0975,0.1021,0.1032,0.104,0.108,0.0926,0,0,0,0,0,0.0977,0.0963,0.0962,0.0948,0.095,0.0946,0.0942,0.0946,0.0949,0.0952,0.096,0.0971,0.0992,0.1,0.1011,0.1032,0.1072,0.1059,0.1068,0.1075,0.1108,0.1198,0.1219,0.0996,0.0996,0.0996,0,0,0.0966,0.0961,0.0949,0.0947,0.0946,0.0967,0.0946,0.0945,0.0978,0.095,0.0993,0.0998,0.1005,0.1045,0.1059,0.1038,0.1161,0.108,0.1086,0.1116,0.1205,0.1227,0.1246,0.0999,0.0998,0.0998,0,0,0.0955,0.0941,0.0938,0.0953,0.0961,0.0969,0.0973,0.098,0.0998,0.1029,0.1036,0.1071,0.1078,0.1115,0.1127,0.1188,0.1205,0.1182,0.1257,0.1343,0.1363,0.1381,0.1468,0.1493,0.1185,0.1185,0.1185,0,0.0942,0.0955,0.0939,0.096,0.0982,0.0977,0.101,0.1024,0.1044,0.1081,0.1055,0.1133,0.1124,0.121,0.1233,0.1211,0.1262,0.1212,0.1357,0.1375,0.1392,0.1477,0.1504,0.1189,0.1188,0.1188,0.1188,0,0.0951,0.0971,0.0971,0.1008,0.1028,0.1048,0.1079,0.1112,0.1128,0.1156,0.1237,0.1242,0.1301,0.1296,0.1277,0.1399,0.1398,0.1359,0.1333,0.1419,0.1503,0.1529,0.1194,0.1193,0.1192,0.1191,0,0,0.0904,0.0964,0.097,0.1016,0.1063,0.1082,0.1147,0.1217,0.128,0.1305,0.14,0.1434,0.1451,0.1469,0.1463,0.1525,0.1672,0.1496,0.1498,0.1588,0.1883,0.1752,0.1768,0.1659,0.1664,0.1668,0.1895,0,0.0927,0.0985,0.1014,0.1092,0.1134,0.1177,0.1244,0.1308,0.136,0.1447,0.1484,0.1557,0.1513,0.1547,0.1612,0.1655,0.1745,0.1616,0.1781,0.1787,0.1665,0.1795,0.1609,0.1784,0.1921,0.1925,0.1928,0,0.0944,0.0988,0.1064,0.1169,0.119,0.124,0.1366,0.1427,0.1544,0.1587,0.1679,0.1704,0.1818,0.1747,0.1921,0.1842,0.1889,0.1913,0.1921,0.1798,0.1706,0.1718,0.1827,0.1973,0.1969,0.1966,0.1963,0,0.0945,0.103,0.1099,0.1132,0.1238,0.1297,0.136,0.1476,0.155,0.1692,0.1757,0.1885,0.1954,0.2043,0.2084,0.2027,0.226,0.2183,0.2129,0.212,0.1994,0.1965,0.2341,0.2341,0.234,0.234,0.2339,0,0.0971,0.1029,0.1106,0.1148,0.1243,0.1316,0.1436,0.1517,0.1649,0.1745,0.1834,0.1927,0.2032,0.2147,0.2177,0.2244,0.2352,0.2193,0.2185,0.201,0.1981,0.2154,0.213,0.2348,0.2346,0.2345,0.2343,0,0.0974,0.1023,0.1104,0.121,0.1249,0.1318,0.146,0.1539,0.1669,0.1803,0.1853,0.2012,0.2153,0.2249,0.2401,0.2353,0.2426,0.2425,0.2207,0.2167,0.2213,0.219,0.241,0.2407,0.2405,0.2404,0.2402,0,0.0984,0.1025,0.1127,0.1168,0.1219,0.1326,0.1396,0.1536,0.1614,0.1833,0.1884,0.2075,0.2155,0.2337,0.2314,0.2386,0.2454,0.2249,0.2084,0.2258,0.2229,0.2208,0.2188,0.1971,0.1967,0.1963,0.196,0,0.1001,0.1029,0.1084,0.1162,0.1232,0.1314,0.142,0.1482,0.1643,0.1753,0.1905,0.1993,0.2128,0.2105,0.2169,0.2161,0.2208,0.2163,0.2476,0.1936,0.185,0.1818,0.1813,0.1924,0.1928,0.193,0.1932,0.1934,0.0999,0.1026,0.1083,0.1157,0.1221,0.1281,0.1333,0.1426,0.1535,0.1651,0.1783,0.1842,0.1903,0.1862,0.187,0.1873,0.1976,0.1912,0.1924,0.194,0.1802,0.1712,0.1737,0.174,0.1742,0.1744,0.1745,0,0.0992,0.1025,0.108,0.1151,0.1184,0.1242,0.1329,0.1352,0.1425,0.1499,0.1577,0.1477,0.1477,0.1588,0.1511,0.1501,0.1473,0.1486,0.146,0.1495,0.1526,0.1365,0.1187,0.1185,0.1184,0.1183,0,0,0.099,0.1023,0.1049,0.1095,0.1139,0.1171,0.1202,0.123,0.1266,0.1244,0.1244,0.1306,0.145,0.1261,0.127,0.1237,0.1344,0.1182,0.1623,0.1621,0.1649,0.1759,0.1548,0,0,0,0,0]},{"header":{"parameterUnit":"m.s-1","parameterCategory":2,"la1":30.2991,"la2":30.254,"lo1":-89.0895,"lo2":-89.0444,"dy":0.0017,"dx":0.0017,"nx":28,"ny":28,"refTime":"2024-10-01T21:00:00:Z","depth":"2","parameterNumber":3,"parameterNumberName":"V-component_of_CURRENTS"},"data":[0,0,0,0,0,0,0,0,0,0,0,0,0,0,0,0,0,0,0,0,0,0,0,0,0,0,0,0,0,0,0,0,0,0,0,0,0,0,0,0,0,0,0,0,0,0,0,0,0,0,0,0,0,0,0,0,0,0,0.0109,0.0109,0,0.0137,0.0137,0.0137,0.0112,0.0112,0.0111,0.011,0.0012,0.0011,0.0009,0,0,0,0,0,0,0,0,0,0,0,0,0,0.004,0.0041,0.0109,0.0109,0.011,0.0137,0.0137,0.0137,0.0113,0.0112,0.0111,0.011,0.0013,0.0011,0.0008,0,0,0,0,0,0,0,0,0,0,0,0,0,0.0066,0.0041,0.0109,0.0103,0.0103,0.0137,0.0137,0.0137,0.0113,0.0112,0.0111,0.011,0.0014,0.0011,0.0008,0.0012,0,0,-0.0001,-0.0002,0,0,0,0,0,0,0,0,0.0065,0.0068,0.0103,0.0104,0.0104,0.0123,0.0077,0.009,0.0113,0.0106,0.011,0.0109,0.004,0.0035,0.0041,0.0008,0.0004,-0.0001,-0.0003,-0.0004,-0.0005,0,0,0,0,0,0,0,0.0063,0.0067,0.0117,0.0104,0.0105,0.0102,0.0104,0.008,0.0074,0.0106,0.0106,0.0114,0.0039,0.0044,0.0038,0.0002,-0.0001,-0.0003,-0.0005,-0.0006,-0.0075,-0.0075,0,0,0,0,0,0,0.0067,0.0066,0.0116,0.0118,0.0085,0.0104,0.0106,0.0115,0.0077,0.0072,0.0115,0.0113,0.0049,0.0041,0.0034,0.0017,-0.0004,-0.0007,-0.0008,-0.0075,-0.0075,-0.0075,0,0,0,0,0,0,0.0065,0.0071,0.0115,0.0095,0.01,0.0107,0.0117,0.0117,0.0114,0.0086,0.0077,0.0112,0.0048,0.0038,0.0016,0.0014,-0.0008,-0.001,-0.0075,-0.0075,-0.0075,-0.0004,0,0,0,0,0,0,0.0063,0.007,0.0077,0.0095,0.0102,0.0141,0.0118,0.0118,0.0123,0.012,0.008,0.0071,0.0046,0.002,0.0013,0.0009,-0.0013,-0.0075,-0.0075,-0.0075,-0.0006,-0.0002,0.0002,0,0,0,0,0,0.0061,0.0091,0.0077,0.0083,0.0111,0.0142,0.0145,0.0143,0.0123,0.0133,0.0104,0.0072,0.0013,0.0019,0.001,0.0005,-0.0075,-0.0075,-0.0075,-0.0008,-0.0003,0.0002,0,0,0,0,0,0,0.0076,0.0092,0.0077,0.0111,0.0122,0.0139,0.0157,0.0144,0.0131,0.0122,0.008,0.007,0.0046,0.0016,0.0024,-0.0018,-0.0041,-0.0043,0.0013,0.0018,0.0022,0.0044,-0.0015,0,0,0,0,0,0.0079,0.0099,0.0108,0.0136,0.0143,0.0143,0.0153,0.0149,0.0144,0.0138,0.0109,0.0071,0.0041,0.0023,-0.0004,-0.002,-0.0047,-0.0034,-0.003,-0.0026,-0.0016,-0.0055,-0.0053,-0.0076,-0.0076,-0.0076,0,0,0.0099,0.0107,0.0121,0.014,0.0148,0.0169,0.0146,0.017,0.0177,0.0127,0.0124,0.0088,0.004,0.0025,0.001,-0.0002,-0.0033,-0.0026,-0.0022,-0.0014,-0.0055,-0.0052,-0.005,-0.0076,-0.0076,-0.0076,0,0,0.0154,0.0148,0.0181,0.0187,0.0199,0.0197,0.0201,0.0208,0.0199,0.0195,0.0153,0.0123,0.0082,0.0053,0.003,0.0039,-0.0008,0.0017,0.0055,0.0017,0.0019,0.0021,-0.0002,-0.0003,0.0017,0.0018,0.0018,0,0.0174,0.0205,0.0197,0.0223,0.0233,0.0208,0.0238,0.0232,0.0227,0.022,0.02,0.0139,0.0098,0.0072,0.0074,0.0049,0.0024,0.0044,0.0025,0.0026,0.0026,0.0002,-0.0001,0.0021,0.0021,0.002,0.002,0,0.0247,0.0262,0.0286,0.0298,0.0308,0.0333,0.0319,0.0316,0.0292,0.0279,0.0251,0.0202,0.0166,0.014,0.0111,0.0087,0.0068,0.0038,0.0019,0.0033,0.0006,0.0002,0.0026,0.0025,0.0024,0.0023,0,0,0.0319,0.0333,0.0339,0.0345,0.0344,0.0364,0.0368,0.0369,0.0375,0.034,0.0342,0.0281,0.0249,0.022,0.017,0.0134,0.0113,0.0092,0.0088,0.0081,0.0039,-0.0011,-0.002,0.0078,0.0078,0.0077,0.0023,0,0.0374,0.0424,0.0417,0.0457,0.0477,0.0448,0.0457,0.0447,0.0429,0.0423,0.0356,0.034,0.0279,0.0264,0.0218,0.0142,0.0105,0.0131,0.0015,0.0012,-0.0024,-0.0026,-0.0044,-0.0098,0.0019,0.0019,0.0018,0,0.0441,0.0461,0.0509,0.0518,0.0527,0.0547,0.055,0.056,0.0534,0.0519,0.0482,0.0432,0.0377,0.0322,0.0205,0.0223,0.014,0.0076,0.0072,-0.0001,-0.0045,-0.0097,-0.0109,0.0012,0.0012,0.0013,0.0013,0,0.0483,0.0522,0.0556,0.0562,0.0575,0.0591,0.06,0.0591,0.0608,0.0587,0.0595,0.0511,0.0484,0.0366,0.0234,0.0217,0.0106,0.0063,-0.0059,-0.0063,-0.0115,-0.0123,-0.0022,-0.0022,-0.0022,-0.0021,-0.0021,0,0.0533,0.0562,0.0581,0.0602,0.0649,0.0643,0.0691,0.0687,0.0695,0.0724,0.0653,0.0655,0.0493,0.0407,0.0268,0.0102,0.0129,-0.0049,-0.0084,-0.0091,-0.0096,-0.0033,-0.0034,-0.0023,-0.0023,-0.0023,-0.0022,0,0.057,0.058,0.0624,0.0654,0.067,0.0706,0.0757,0.079,0.0795,0.0832,0.083,0.0768,0.0652,0.0485,0.0303,0.0157,-0.0003,-0.007,-0.0059,-0.0093,-0.0156,-0.0152,-0.022,-0.0223,-0.0225,-0.0226,-0.0228,0,0.059,0.0618,0.0667,0.0699,0.0718,0.0773,0.0812,0.0836,0.0878,0.09,0.0922,0.0838,0.0754,0.0481,0.022,-0.0035,-0.0024,-0.0202,-0.0252,-0.0151,-0.0178,-0.0171,-0.0165,-0.0286,-0.0288,-0.0289,-0.029,0,0.0634,0.065,0.0684,0.0751,0.0801,0.0863,0.0925,0.097,0.1001,0.103,0.1055,0.099,0.0719,0.0431,0.0086,-0.0075,-0.0169,-0.0241,-0.0137,-0.0236,-0.0219,-0.0243,-0.0234,-0.0303,-0.0302,-0.0301,-0.03,-0.0299,0.0666,0.0696,0.0742,0.0806,0.0864,0.0943,0.1009,0.1066,0.1134,0.1132,0.1078,0.095,0.0665,0.0164,-0.0068,-0.0284,-0.0286,-0.0384,-0.0377,-0.0369,-0.0371,-0.0358,-0.0468,-0.0467,-0.0467,-0.0467,-0.0467,0,0.0704,0.0741,0.0797,0.0875,0.0943,0.0979,0.1077,0.1127,0.1208,0.1125,0.1068,0.0721,0.0386,0.0138,-0.0233,-0.0473,-0.0459,-0.0501,-0.0447,-0.0436,-0.0425,-0.0426,-0.054,-0.054,-0.054,-0.054,0,0,0.073,0.078,0.0806,0.0925,0.0994,0.1106,0.1172,0.1226,0.1203,0.1079,0.0947,0.0691,0.0398,0.0107,-0.0186,-0.0352,-0.0327,-0.0373,-0.0303,-0.0197,-0.0183,-0.0362,-0.0352,0,0,0,0,0]}],[{"header":{"parameterUnit":"m.s-1","parameterCategory":2,"la1":30.2991,"la2":30.254,"lo1":-89.0895,"lo2":-89.0444,"dy":0.0017,"dx":0.0017,"nx":28,"ny":28,"refTime":"2024-10-01T21:00:00:Z","depth":"4","parameterNumber":2,"parameterNumberName":"U-component_of_CURRENTS"},"data":[0,0,0,0,0,0,0,0,0,0,0,0,0,0,0,0,0,0,0,0,0,0,0,0,0,0,0,0,0,0,0,0,0,0,0,0,0,0,0,0,0,0,0,0,0,0,0,0,0,0,0,0,0,0,0,0,0,0,0.0608,0.0608,0,0.0635,0.0636,0.0636,0.0665,0.0666,0.0666,0.0666,0.072,0.0721,0.0722,0,0,0,0,0,0,0,0,0,0,0,0,0,0.0566,0.0566,0.0608,0.0608,0.0608,0.0635,0.0636,0.0636,0.0665,0.0666,0.0666,0.0666,0.072,0.0721,0.0722,0,0,0,0,0,0,0,0,0,0,0,0,0,0.0588,0.0567,0.0608,0.0626,0.0628,0.0635,0.0636,0.0636,0.0665,0.0666,0.0666,0.0667,0.0719,0.0721,0.0723,0.0721,0,0,0.0727,0.0728,0,0,0,0,0,0,0,0,0.0587,0.0589,0.0623,0.0625,0.0627,0.0647,0.0641,0.0666,0.0665,0.0651,0.0666,0.0667,0.0698,0.0701,0.0705,0.0723,0.0726,0.0728,0.0729,0.0729,0.073,0,0,0,0,0,0,0,0.0585,0.0588,0.0619,0.0623,0.0626,0.0628,0.0632,0.0645,0.0671,0.0652,0.0654,0.0657,0.0699,0.0703,0.0706,0.0726,0.0728,0.0729,0.073,0.0731,0.08,0.0801,0,0,0,0,0,0,0.0582,0.0587,0.0618,0.062,0.0608,0.0628,0.0633,0.064,0.0671,0.0676,0.0656,0.0658,0.07,0.0705,0.0708,0.0757,0.0729,0.0731,0.0732,0.0799,0.08,0.0801,0,0,0,0,0,0,0.0581,0.0584,0.0617,0.0603,0.0608,0.0628,0.0637,0.064,0.0673,0.0674,0.0679,0.0689,0.0701,0.0706,0.0743,0.0758,0.0731,0.0733,0.0798,0.08,0.0801,0.0824,0,0,0,0,0,0,0.0579,0.0584,0.0599,0.0603,0.0608,0.0636,0.0636,0.0641,0.0672,0.0676,0.0703,0.0706,0.0702,0.074,0.0744,0.076,0.0734,0.0797,0.0799,0.08,0.0822,0.0826,0.0829,0,0,0,0,0,0.0578,0.0589,0.06,0.0604,0.0625,0.0637,0.0641,0.0656,0.0673,0.0689,0.071,0.0707,0.0753,0.0743,0.0747,0.0763,0.0796,0.0798,0.08,0.082,0.0825,0.0829,0,0,0,0,0,0,0.0573,0.0593,0.0605,0.0622,0.0637,0.0642,0.0659,0.0675,0.0704,0.0715,0.0722,0.0727,0.0761,0.0763,0.0751,0.0788,0.0773,0.0776,0.0787,0.0792,0.0795,0.0779,0.0736,0,0,0,0,0,0.058,0.0606,0.0614,0.0635,0.0641,0.0659,0.0672,0.0683,0.0702,0.0717,0.0736,0.0754,0.0768,0.0783,0.0793,0.0819,0.0809,0.0832,0.0835,0.0838,0.0829,0.0835,0.0838,0.0808,0.0808,0.0808,0,0,0.0585,0.0602,0.0616,0.0638,0.0652,0.0661,0.0669,0.0694,0.0707,0.0718,0.0754,0.0771,0.0778,0.0801,0.0817,0.0809,0.0842,0.0841,0.0843,0.0832,0.0837,0.084,0.0842,0.0809,0.0809,0.0809,0,0,0.0596,0.0622,0.064,0.0654,0.0679,0.0684,0.0699,0.0719,0.0735,0.0767,0.0775,0.0799,0.0833,0.0829,0.0833,0.0864,0.086,0.0882,0.0889,0.0896,0.0898,0.0899,0.089,0.0891,0.0885,0.0885,0.0885,0,0.0601,0.0625,0.0647,0.0661,0.0675,0.0698,0.0709,0.0723,0.0756,0.0772,0.0783,0.0827,0.0835,0.085,0.086,0.087,0.0876,0.0871,0.0899,0.09,0.0902,0.0892,0.0892,0.0886,0.0886,0.0886,0.0886,0,0.0612,0.0639,0.0651,0.068,0.0695,0.0714,0.0726,0.0752,0.078,0.0794,0.083,0.084,0.0868,0.0874,0.0877,0.0896,0.0898,0.0902,0.0885,0.0906,0.0894,0.0894,0.0888,0.0887,0.0887,0.0887,0,0,0.06,0.065,0.0656,0.0678,0.0709,0.0721,0.0742,0.0765,0.0788,0.0818,0.0847,0.0862,0.0886,0.0891,0.0902,0.0901,0.0914,0.0913,0.0913,0.0897,0.093,0.0936,0.0936,0.0937,0.0937,0.0937,0.0917,0,0.0604,0.0639,0.0659,0.0694,0.071,0.0737,0.0756,0.0782,0.0808,0.0843,0.0854,0.0894,0.0888,0.0921,0.0916,0.0922,0.0916,0.0918,0.0917,0.0916,0.0914,0.0937,0.0938,0.0917,0.0917,0.0917,0.0917,0,0.0599,0.0629,0.0661,0.0712,0.0721,0.0743,0.0784,0.0807,0.0846,0.0872,0.0903,0.093,0.0945,0.0942,0.0936,0.0948,0.0941,0.0928,0.0928,0.0923,0.0923,0.0892,0.0916,0.0917,0.0917,0.0917,0.0917,0,0.0578,0.0628,0.0661,0.0677,0.0729,0.0753,0.0786,0.0823,0.0848,0.0907,0.0935,0.0959,0.0987,0.0977,0.0974,0.0968,0.0959,0.0947,0.0931,0.0931,0.0918,0.0916,0.0932,0.0932,0.0932,0.0932,0.0932,0,0.0567,0.0595,0.0662,0.0679,0.072,0.0761,0.0803,0.0836,0.0887,0.092,0.0964,0.0987,0.1003,0.1009,0.0987,0.0967,0.0974,0.093,0.093,0.0929,0.0929,0.0918,0.0916,0.0931,0.0931,0.0932,0.0932,0,0.0534,0.058,0.062,0.0688,0.0712,0.0745,0.0815,0.0838,0.0898,0.0942,0.0973,0.1019,0.1039,0.1036,0.1024,0.0989,0.0967,0.0956,0.0955,0.0956,0.0922,0.0922,0.0922,0.0922,0.0923,0.0923,0.0923,0,0.052,0.0539,0.0617,0.0646,0.0681,0.0738,0.077,0.0839,0.0866,0.095,0.0965,0.1023,0.1047,0.1014,0.1023,0.0993,0.0981,0.0959,0.0931,0.0922,0.0923,0.0923,0.0923,0.0923,0.0923,0.0923,0.0923,0,0.0486,0.0521,0.0555,0.0615,0.0659,0.0698,0.0757,0.0775,0.0856,0.0912,0.0952,0.098,0.1001,0.1002,0.1005,0.0974,0.0969,0.096,0.0958,0.0931,0.0923,0.0924,0.0923,0.0924,0.0923,0.0923,0.0923,0,0.0461,0.0474,0.0527,0.0574,0.0627,0.0654,0.0687,0.0734,0.0775,0.0876,0.0889,0.0944,0.0996,0.0993,0.0987,0.0981,0.0954,0.091,0.091,0.091,0.092,0.0908,0.0905,0,0,0,0,0,0.0434,0.0446,0.0483,0.0532,0.0582,0.0613,0.0676,0.0709,0.0789,0.0804,0.0851,0.0879,0.0908,0.0932,0.0919,0.0971,0.0947,0.0953,0.0892,0.0926,0.0926,0.0942,0,0,0,0,0,0,0.0414,0.0445,0.0464,0.0491,0.0516,0.0558,0.0596,0.0646,0.0662,0.0749,0.0763,0.0838,0.0864,0.0903,0.0903,0.0912,0.0861,0.0995,0.0993,0.0927,0.0926,0.0926,0.0942,0,0,0,0,0]},{"header":{"parameterUnit":"m.s-1","parameterCategory":2,"la1":30.2991,"la2":30.254,"lo1":-89.0895,"lo2":-89.0444,"dy":0.0017,"dx":0.0017,"nx":28,"ny":28,"refTime":"2024-10-01T21:00:00:Z","depth":"4","parameterNumber":3,"parameterNumberName":"V-component_of_CURRENTS"},"data":[0,0,0,0,0,0,0,0,0,0,0,0,0,0,0,0,0,0,0,0,0,0,0,0,0,0,0,0,0,0,0,0,0,0,0,0,0,0,0,0,0,0,0,0,0,0,0,0,0,0,0,0,0,0,0,0,0,0,0.0158,0.0158,0,0.0092,0.0092,0.0091,0.0112,0.0114,0.0116,0.0117,0.0043,0.004,0.0036,0,0,0,0,0,0,0,0,0,0,0,0,0,0.0195,0.0195,0.0158,0.0158,0.0157,0.0093,0.0092,0.0091,0.0112,0.0114,0.0116,0.0118,0.0044,0.004,0.0036,0,0,0,0,0,0,0,0,0,0,0,0,0,0.0158,0.0195,0.0159,0.0161,0.0161,0.0093,0.0091,0.009,0.0112,0.0114,0.0116,0.0119,0.0046,0.0041,0.0036,-0.0042,0,0,0.002,0.0018,0,0,0,0,0,0,0,0,0.016,0.0157,0.0161,0.0161,0.016,0.0114,0.0077,0.0046,0.0111,0.0129,0.0117,0.012,0.0065,0.0059,0.0039,-0.0046,-0.0049,0.0019,0.0016,0.0014,0.0013,0,0,0,0,0,0,0,0.0163,0.0159,0.0131,0.016,0.016,0.0128,0.0126,0.0071,0.0084,0.0128,0.0129,0.0123,0.0065,0.0044,0.0038,-0.005,0.002,0.0015,0.0012,0.001,-0.0223,-0.0226,0,0,0,0,0,0,0.0177,0.0162,0.0133,0.0129,0.0167,0.0126,0.0124,0.0126,0.0085,0.0081,0.0121,0.0124,0.0052,0.0044,0.0035,-0.0065,0.0014,0.0009,0.0006,-0.022,-0.0224,-0.0227,0,0,0,0,0,0,0.0178,0.0175,0.0136,0.0144,0.0138,0.0124,0.0125,0.0123,0.0108,0.008,0.0077,0.011,0.0053,0.0042,-0.0024,-0.0067,0.0007,0.0002,-0.0216,-0.0221,-0.0225,-0.0263,0,0,0,0,0,0,0.0179,0.0176,0.0177,0.0146,0.0138,0.0089,0.0123,0.012,0.0101,0.0105,0.0068,0.0064,0.0054,-0.0017,-0.0029,-0.0073,-0.0002,-0.0212,-0.0218,-0.0224,-0.0258,-0.0268,-0.0277,0,0,0,0,0,0.0181,0.0164,0.0178,0.0174,0.0142,0.0087,0.0079,0.0076,0.0099,0.0075,0.0052,0.0066,-0.0062,-0.0024,-0.0037,-0.0084,-0.0209,-0.0217,-0.0223,-0.0253,-0.0266,-0.0277,0,0,0,0,0,0,0.018,0.0164,0.0178,0.016,0.0128,0.0092,0.0067,0.0069,0.003,0.0036,0.0024,0.0015,-0.0062,-0.0078,-0.0034,-0.0172,-0.0135,-0.0145,-0.0153,-0.0165,-0.0175,-0.0119,-0.0006,0,0,0,0,0,0.0182,0.0167,0.0145,0.0128,0.0112,0.0091,0.007,0.0064,0.0029,0.0017,-0.0012,-0.0052,-0.0108,-0.0135,-0.0188,-0.0265,-0.0242,-0.0307,-0.0317,-0.0325,-0.0293,-0.0323,-0.0331,-0.025,-0.025,-0.025,0,0,0.0176,0.0166,0.0158,0.0127,0.0104,0.007,0.0083,0.0041,0.0019,0.0009,-0.0043,-0.0092,-0.0139,-0.0221,-0.0257,-0.0234,-0.0339,-0.0334,-0.034,-0.0302,-0.0331,-0.0338,-0.0345,-0.0255,-0.0254,-0.0253,0,0,0.0144,0.0147,0.0122,0.0096,0.006,0.0042,0.0032,-0.0013,-0.0026,-0.0094,-0.0106,-0.0163,-0.026,-0.0288,-0.0316,-0.0415,-0.0393,-0.0459,-0.0459,-0.0491,-0.0496,-0.0501,-0.0476,-0.0478,-0.046,-0.0461,-0.0461,0,0.0138,0.012,0.0101,0.0069,0.0056,0.0034,0.0006,-0.0028,-0.0088,-0.0102,-0.0114,-0.0237,-0.028,-0.0349,-0.0389,-0.043,-0.0433,-0.0405,-0.0498,-0.0502,-0.0506,-0.048,-0.0481,-0.0463,-0.0463,-0.0463,-0.0462,0,0.0088,0.0079,0.0054,0.0025,-0.0002,-0.0037,-0.0069,-0.0103,-0.0123,-0.0149,-0.0228,-0.0295,-0.0353,-0.0403,-0.0428,-0.0494,-0.0482,-0.0506,-0.0452,-0.0515,-0.0485,-0.0486,-0.0467,-0.0466,-0.0465,-0.0465,0,0,0.0061,0.0032,0.0024,0.0028,-0.0019,-0.0042,-0.0085,-0.0122,-0.0129,-0.0211,-0.0232,-0.0349,-0.0373,-0.0406,-0.0458,-0.0491,-0.0531,-0.0516,-0.0516,-0.046,-0.0572,-0.0563,-0.0561,-0.0587,-0.0588,-0.0588,-0.0537,0,0.0034,0.0,-0.0017,-0.0043,-0.0055,-0.0074,-0.0104,-0.0139,-0.0174,-0.0211,-0.0274,-0.0334,-0.0381,-0.0421,-0.0465,-0.0518,-0.0537,-0.0539,-0.0544,-0.0542,-0.0502,-0.0564,-0.059,-0.0537,-0.0537,-0.0537,-0.0537,0,-0.0006,-0.0013,-0.0034,-0.0033,-0.0042,-0.0066,-0.008,-0.0112,-0.0164,-0.0193,-0.0251,-0.0305,-0.0371,-0.0409,-0.0482,-0.0492,-0.0527,-0.0556,-0.0556,-0.0523,-0.0535,-0.0468,-0.0538,-0.0538,-0.0538,-0.0537,-0.0537,0,0.0008,-0.0021,-0.0021,-0.0029,-0.0048,-0.0054,-0.0069,-0.0107,-0.0117,-0.0179,-0.0194,-0.0281,-0.032,-0.039,-0.0467,-0.0486,-0.0528,-0.0556,-0.0562,-0.0559,-0.0558,-0.0554,-0.0591,-0.0591,-0.0591,-0.0592,-0.0592,0,-0.0001,-0.0004,-0.001,-0.0012,-0.0007,-0.0031,-0.0034,-0.0059,-0.009,-0.0097,-0.0183,-0.0205,-0.0327,-0.0378,-0.0445,-0.0496,-0.0509,-0.0547,-0.0556,-0.0578,-0.0577,-0.0557,-0.0554,-0.059,-0.059,-0.059,-0.0591,0,0.0011,0.0004,0.0008,0.0,0.0002,0.0004,-0.0002,-0.0003,-0.0036,-0.0044,-0.0066,-0.0149,-0.0219,-0.0311,-0.0407,-0.0452,-0.051,-0.0524,-0.0497,-0.0507,-0.0513,-0.0513,-0.0507,-0.0506,-0.0506,-0.0506,-0.0505,0,0.0016,0.0019,0.0027,0.0039,0.0036,0.004,0.0046,0.0021,0.0026,-0.0005,-0.0004,-0.0079,-0.0142,-0.0232,-0.0354,-0.0451,-0.0481,-0.0485,-0.0539,-0.05,-0.0509,-0.051,-0.051,-0.0505,-0.0505,-0.0504,-0.0504,0,0.003,0.0032,0.0041,0.0069,0.0082,0.0097,0.0105,0.0117,0.0096,0.0073,0.0056,-0.0022,-0.0091,-0.021,-0.0292,-0.0373,-0.0476,-0.0481,-0.0483,-0.0533,-0.0497,-0.0507,-0.0508,-0.0503,-0.0503,-0.0503,-0.0503,0,0.0043,0.0054,0.0072,0.0098,0.0122,0.0147,0.0147,0.0157,0.0156,0.0129,0.0124,0.0028,-0.004,-0.0167,-0.0246,-0.0327,-0.0353,-0.0373,-0.0381,-0.0384,-0.039,-0.0329,-0.028,0,0,0,0,0,0.0057,0.0075,0.0101,0.013,0.0158,0.0168,0.0187,0.0183,0.0175,0.018,0.0155,0.0087,-0.0043,-0.0113,-0.0188,-0.0253,-0.0378,-0.0345,-0.0407,-0.0494,-0.0496,-0.0528,0,0,0,0,0,0,0.0065,0.0092,0.0105,0.0156,0.0181,0.0208,0.0219,0.0213,0.0213,0.0194,0.0125,0.0081,-0.0053,0.0006,-0.0185,-0.0215,-0.026,-0.0415,-0.0416,-0.0493,-0.0495,-0.0496,-0.053,0,0,0,0,0]}]]